Погода в Лагуна Бич

США     33°32′14″N   117°46′11″W
темп.,
°C
ветер,
м/с
пор.,
м/с
влажн.,
%
обл.,
%
осадки,
мм/ч
давл.,
гПа
погр.,
м
7 марта, вс
вс701:00+12юв338178 0.0 1017396
04:00+12юв338189 0.0 1016422
07:00+13юв3479100 0.0 1016567
10:00+13ююв2273100 0.0 1017474
13:00+14ю4473100 0.0 1016504
16:00+14ю557499 0.0 1016477
19:00+13юв5677100 0.0 1017706
22:00+14юв6780100 0.1 1018757
8 марта, пн
пн801:00+13юв668079 0.1 1018600
04:00+13ююв337989 0.3 1019477
07:00+13ююв348097 0.2 1020317
10:00+14ю226998 0.4 1021454
13:00+14зюз337189 0.1 1020491
16:00+14з447148 0.1 1020406
19:00+13зюз22710 0.0 1021274
22:00+13з34692 0.0 1022509
9 марта, вт
вт901:00+12зсз55680 0.0 1022568
04:00+12зюз34720 0.0 1020664
07:00+12з34723 0.0 1022575
10:00+13з55641 0.0 1023723
13:00+14з910570 0.0 1022918
16:00+14з911610 0.0 1020996
19:00+13зсз810700 0.0 10221039
22:00+13зсз78680 0.0 10231232
10 марта, ср
ср1001:00+12зсз57690 0.1 10211023
04:00+12з577526 2.0 1020769
07:00+12з787585 3.1 1019881
10:00+12з896992 6.4 1019918
13:00+13з9106219 0.4 10181303
16:00+12з9116410 0.8 10161414
19:00+11з9116799 1.7 10171303
22:00+11зсз896764 2.9 10171192
11 марта, чт
чт1101:00+11з896736 0.9 10161127
04:00+10з686735 3.3 10161019
07:00+11зсз5763100 3.1 10161078
10:00+12зсз6757100 5.4 10171349
13:00+12з785972 0.2 10161260
16:00+12з676036 0.3 10151125
19:00+12з345611 0.0 1016851
22:00+12юв335410 0.1 1017533